Year,Month,Day,Hour,Minute,Value (Times are PST for temperature in C)
2015,09,26,00,00,10.60
2015,09,26,00,01,10.60
2015,09,26,00,02,10.60
2015,09,26,00,03,10.60
2015,09,26,00,04,10.70
2015,09,26,00,05,10.70
2015,09,26,00,06,10.70
2015,09,26,00,07,10.70
2015,09,26,00,08,10.70
2015,09,26,00,09,10.70
2015,09,26,00,10,10.70
2015,09,26,00,11,10.70
2015,09,26,00,12,10.70
2015,09,26,00,13,10.70
2015,09,26,00,14,10.70
2015,09,26,00,15,10.70
2015,09,26,00,16,10.70
2015,09,26,00,17,10.70
2015,09,26,00,18,10.70
2015,09,26,00,19,10.60
2015,09,26,00,20,10.60
2015,09,26,00,21,10.60
2015,09,26,00,22,10.60
2015,09,26,00,23,10.50
2015,09,26,00,24,10.50
2015,09,26,00,25,10.50
2015,09,26,00,26,10.40
2015,09,26,00,27,10.40
2015,09,26,00,28,10.50
2015,09,26,00,29,10.50
2015,09,26,00,30,10.50
2015,09,26,00,31,10.50
2015,09,26,00,32,10.50
2015,09,26,00,33,10.50
2015,09,26,00,34,10.40
2015,09,26,00,35,10.40
2015,09,26,00,36,10.40
2015,09,26,00,37,10.40
2015,09,26,00,38,10.40
2015,09,26,00,39,10.40
2015,09,26,00,40,10.40
2015,09,26,00,41,10.40
2015,09,26,00,42,10.40
2015,09,26,00,43,10.40
2015,09,26,00,44,10.40
2015,09,26,00,45,10.40
2015,09,26,00,46,10.40
2015,09,26,00,47,10.40
2015,09,26,00,48,10.40
2015,09,26,00,49,10.40
2015,09,26,00,50,10.40
2015,09,26,00,51,10.40
2015,09,26,00,52,10.40
2015,09,26,00,53,10.40
2015,09,26,00,54,10.30
2015,09,26,00,55,10.30
2015,09,26,00,56,10.30
2015,09,26,00,57,10.30
2015,09,26,00,58,10.30
2015,09,26,00,59,10.30
2015,09,26,01,00,10.30
2015,09,26,01,01,10.30
2015,09,26,01,02,10.30
2015,09,26,01,03,10.30
2015,09,26,01,04,10.30
2015,09,26,01,05,10.40
2015,09,26,01,06,10.40
2015,09,26,01,07,10.40
2015,09,26,01,08,10.40
2015,09,26,01,09,10.40
2015,09,26,01,10,10.40
2015,09,26,01,11,10.40
2015,09,26,01,12,10.30
2015,09,26,01,13,10.30
2015,09,26,01,14,10.30
2015,09,26,01,15,10.40
2015,09,26,01,16,10.40
2015,09,26,01,17,10.40
2015,09,26,01,18,10.40
2015,09,26,01,19,10.40
2015,09,26,01,20,10.40
2015,09,26,01,21,10.40
2015,09,26,01,22,10.40
2015,09,26,01,23,10.40
2015,09,26,01,24,10.40
2015,09,26,01,25,10.40
2015,09,26,01,26,10.40
2015,09,26,01,27,10.40
2015,09,26,01,28,10.50
2015,09,26,01,29,10.50
2015,09,26,01,30,10.50
2015,09,26,01,31,10.50
2015,09,26,01,32,10.50
2015,09,26,01,33,10.40
2015,09,26,01,34,10.40
2015,09,26,01,35,10.40
2015,09,26,01,36,10.40
2015,09,26,01,37,10.40
2015,09,26,01,38,10.40
2015,09,26,01,39,10.30
2015,09,26,01,40,10.30
2015,09,26,01,41,10.30
2015,09,26,01,42,10.30
2015,09,26,01,43,10.30
2015,09,26,01,44,10.30
2015,09,26,01,45,10.30
2015,09,26,01,46,10.30
2015,09,26,01,47,10.30
2015,09,26,01,48,10.30
2015,09,26,01,49,10.20
2015,09,26,01,50,10.20
2015,09,26,01,51,10.20
2015,09,26,01,52,10.20
2015,09,26,01,53,10.20
2015,09,26,01,54,10.20
2015,09,26,01,55,10.20
2015,09,26,01,56,10.20
2015,09,26,01,57,10.20
2015,09,26,01,58,10.20
2015,09,26,01,59,10.20
2015,09,26,02,00,10.20
2015,09,26,02,01,10.20
2015,09,26,02,02,10.20
2015,09,26,02,03,10.20
2015,09,26,02,04,10.20
2015,09,26,02,05,10.20
2015,09,26,02,06,10.20
2015,09,26,02,07,10.20
2015,09,26,02,08,10.20
2015,09,26,02,09,10.20
2015,09,26,02,10,10.30
2015,09,26,02,11,10.30
2015,09,26,02,12,10.30
2015,09,26,02,13,10.30
2015,09,26,02,14,10.30
2015,09,26,02,15,10.30
2015,09,26,02,16,10.30
2015,09,26,02,17,10.30
2015,09,26,02,18,10.30
2015,09,26,02,19,10.20
2015,09,26,02,20,10.20
2015,09,26,02,21,10.20
2015,09,26,02,22,10.20
2015,09,26,02,23,10.20
2015,09,26,02,24,10.20
2015,09,26,02,25,10.20
2015,09,26,02,26,10.20
2015,09,26,02,27,10.10
2015,09,26,02,28,10.20
2015,09,26,02,29,10.20
2015,09,26,02,30,10.20
2015,09,26,02,31,10.20
2015,09,26,02,32,10.20
2015,09,26,02,33,10.20
2015,09,26,02,34,10.20
2015,09,26,02,35,10.20
2015,09,26,02,36,10.30
2015,09,26,02,37,10.30
2015,09,26,02,38,10.30
2015,09,26,02,39,10.30
2015,09,26,02,40,10.30
2015,09,26,02,41,10.30
2015,09,26,02,42,10.20
2015,09,26,02,43,10.20
2015,09,26,02,44,10.20
2015,09,26,02,45,10.20
2015,09,26,02,46,10.10
2015,09,26,02,47,10.10
2015,09,26,02,48,10.10
2015,09,26,02,49,10.10
2015,09,26,02,50,10.10
2015,09,26,02,51,10.00
2015,09,26,02,52,10.00
2015,09,26,02,53,10.00
2015,09,26,02,54,10.10
2015,09,26,02,55,10.10
2015,09,26,02,56,10.10
2015,09,26,02,57,10.00
2015,09,26,02,58,10.10
2015,09,26,02,59,10.10
2015,09,26,03,00,10.10
2015,09,26,03,01,10.10
2015,09,26,03,02,10.10
2015,09,26,03,03,10.10
2015,09,26,03,04,10.20
2015,09,26,03,05,10.10
2015,09,26,03,06,10.10
2015,09,26,03,07,10.10
2015,09,26,03,08,10.20
2015,09,26,03,09,10.20
2015,09,26,03,10,10.20
2015,09,26,03,11,10.20
2015,09,26,03,12,10.30
2015,09,26,03,13,10.30
2015,09,26,03,14,10.20
2015,09,26,03,15,10.20
2015,09,26,03,16,10.20
2015,09,26,03,17,10.20
2015,09,26,03,18,10.20
2015,09,26,03,19,10.20
2015,09,26,03,20,10.20
2015,09,26,03,21,10.30
2015,09,26,03,22,10.30
2015,09,26,03,23,10.30
2015,09,26,03,24,10.30
2015,09,26,03,25,10.30
2015,09,26,03,26,10.30
2015,09,26,03,27,10.30
2015,09,26,03,28,10.30
2015,09,26,03,29,10.30
2015,09,26,03,30,10.30
2015,09,26,03,31,10.30
2015,09,26,03,32,10.30
2015,09,26,03,33,10.30
2015,09,26,03,34,10.30
2015,09,26,03,35,10.30
2015,09,26,03,36,10.30
2015,09,26,03,37,10.30
2015,09,26,03,38,10.20
2015,09,26,03,39,10.20
2015,09,26,03,40,10.20
2015,09,26,03,41,10.20
2015,09,26,03,42,10.20
2015,09,26,03,43,10.10
2015,09,26,03,44,10.10
2015,09,26,03,45,10.10
2015,09,26,03,46,10.10
2015,09,26,03,47,10.10
2015,09,26,03,48,10.10
2015,09,26,03,49,10.10
2015,09,26,03,50,10.00
2015,09,26,03,51,10.00
2015,09,26,03,52,10.10
2015,09,26,03,53,10.10
2015,09,26,03,54,10.10
2015,09,26,03,55,10.10
2015,09,26,03,56,10.00
2015,09,26,03,57,10.00
2015,09,26,03,58,10.00
2015,09,26,03,59,10.00
2015,09,26,04,00,9.90
2015,09,26,04,01,9.90
2015,09,26,04,02,9.90
2015,09,26,04,03,9.90
2015,09,26,04,04,9.90
2015,09,26,04,05,9.90
2015,09,26,04,06,9.90
2015,09,26,04,07,9.90
2015,09,26,04,08,9.90
2015,09,26,04,09,10.00
2015,09,26,04,10,10.00
2015,09,26,04,11,10.00
2015,09,26,04,12,10.00
2015,09,26,04,13,10.00
2015,09,26,04,14,10.00
2015,09,26,04,15,10.00
2015,09,26,04,16,10.10
2015,09,26,04,17,10.10
2015,09,26,04,18,10.10
2015,09,26,04,19,10.10
2015,09,26,04,20,10.10
2015,09,26,04,21,10.10
2015,09,26,04,22,10.20
2015,09,26,04,23,10.20
2015,09,26,04,24,10.20
2015,09,26,04,25,10.20
2015,09,26,04,26,10.20
2015,09,26,04,27,10.20
2015,09,26,04,28,10.20
2015,09,26,04,29,10.20
2015,09,26,04,30,10.20
2015,09,26,04,31,10.20
2015,09,26,04,32,10.20
2015,09,26,04,33,10.20
2015,09,26,04,34,10.20
2015,09,26,04,35,10.20
2015,09,26,04,36,10.20
2015,09,26,04,37,10.20
2015,09,26,04,38,10.10
2015,09,26,04,39,10.10
2015,09,26,04,40,10.10
2015,09,26,04,41,10.10
2015,09,26,04,42,10.10
2015,09,26,04,43,10.10
2015,09,26,04,44,10.10
2015,09,26,04,45,10.10
2015,09,26,04,46,10.00
2015,09,26,04,47,10.00
2015,09,26,04,48,9.90
2015,09,26,04,49,9.90
2015,09,26,04,50,9.90
2015,09,26,04,51,9.80
2015,09,26,04,52,9.80
2015,09,26,04,53,9.70
2015,09,26,04,54,9.70
2015,09,26,04,55,9.60
2015,09,26,04,56,9.50
2015,09,26,04,57,9.40
2015,09,26,04,58,9.30
2015,09,26,04,59,9.20
2015,09,26,05,00,9.10
2015,09,26,05,01,9.00
2015,09,26,05,02,8.90
2015,09,26,05,03,8.90
2015,09,26,05,04,8.90
2015,09,26,05,05,8.90
2015,09,26,05,06,8.80
2015,09,26,05,07,8.80
2015,09,26,05,08,8.70
2015,09,26,05,09,8.70
2015,09,26,05,10,8.60
2015,09,26,05,11,8.60
2015,09,26,05,12,8.50
2015,09,26,05,13,8.40
2015,09,26,05,14,8.40
2015,09,26,05,15,8.30
2015,09,26,05,16,8.30
2015,09,26,05,17,8.20
2015,09,26,05,18,8.20
2015,09,26,05,19,8.10
2015,09,26,05,20,8.10
2015,09,26,05,21,8.10
2015,09,26,05,22,8.20
2015,09,26,05,23,8.20
2015,09,26,05,24,8.20
2015,09,26,05,25,8.20
2015,09,26,05,26,8.20
2015,09,26,05,27,8.20
2015,09,26,05,28,8.20
2015,09,26,05,29,8.10
2015,09,26,05,30,8.10
2015,09,26,05,31,8.10
2015,09,26,05,32,8.10
2015,09,26,05,33,8.00
2015,09,26,05,34,8.00
2015,09,26,05,35,7.90
2015,09,26,05,36,7.90
2015,09,26,05,37,7.90
2015,09,26,05,38,7.90
2015,09,26,05,39,7.80
2015,09,26,05,40,7.90
2015,09,26,05,41,7.90
2015,09,26,05,42,7.90
2015,09,26,05,43,7.90
2015,09,26,05,44,7.90
2015,09,26,05,45,7.90
2015,09,26,05,46,8.00
2015,09,26,05,47,8.10
2015,09,26,05,48,8.20
2015,09,26,05,49,8.30
2015,09,26,05,50,8.40
2015,09,26,05,51,8.50
2015,09,26,05,52,8.50
2015,09,26,05,53,8.50
2015,09,26,05,54,8.50
2015,09,26,05,55,8.50
2015,09,26,05,56,8.40
2015,09,26,05,57,8.40
2015,09,26,05,58,8.40
2015,09,26,05,59,8.30
2015,09,26,06,00,8.30
2015,09,26,06,01,8.30
2015,09,26,06,02,8.20
2015,09,26,06,03,8.20
2015,09,26,06,04,8.20
2015,09,26,06,05,8.10
2015,09,26,06,06,8.00
2015,09,26,06,07,7.90
2015,09,26,06,08,7.90
2015,09,26,06,09,7.80
2015,09,26,06,10,7.80
2015,09,26,06,11,7.70
2015,09,26,06,12,7.70
2015,09,26,06,13,7.70
2015,09,26,06,14,7.60
2015,09,26,06,15,7.60
2015,09,26,06,16,7.60
2015,09,26,06,17,7.50
2015,09,26,06,18,7.50
2015,09,26,06,19,7.40
2015,09,26,06,20,7.40
2015,09,26,06,21,7.40
2015,09,26,06,22,7.40
2015,09,26,06,23,7.30
2015,09,26,06,24,7.40
2015,09,26,06,25,7.40
2015,09,26,06,26,7.40
2015,09,26,06,27,7.40
2015,09,26,06,28,7.40
2015,09,26,06,29,7.30
2015,09,26,06,30,7.40
2015,09,26,06,31,7.40
2015,09,26,06,32,7.40
2015,09,26,06,33,7.40
2015,09,26,06,34,7.40
2015,09,26,06,35,7.30
2015,09,26,06,36,7.30
2015,09,26,06,37,7.30
2015,09,26,06,38,7.30
2015,09,26,06,39,7.30
2015,09,26,06,40,7.30
2015,09,26,06,41,7.20
2015,09,26,06,42,7.20
2015,09,26,06,43,7.10
2015,09,26,06,44,7.10
2015,09,26,06,45,7.10
2015,09,26,06,46,7.00
2015,09,26,06,47,7.00
2015,09,26,06,48,6.90
2015,09,26,06,49,6.90
2015,09,26,06,50,6.90
2015,09,26,06,51,6.90
2015,09,26,06,52,6.90
2015,09,26,06,53,6.90
2015,09,26,06,54,6.90
2015,09,26,06,55,6.90
2015,09,26,06,56,6.90
2015,09,26,06,57,6.90
2015,09,26,06,58,6.90
2015,09,26,06,59,6.90
2015,09,26,07,00,6.90
2015,09,26,07,01,6.90
2015,09,26,07,02,6.90
2015,09,26,07,03,6.90
2015,09,26,07,04,6.90
2015,09,26,07,05,6.90
2015,09,26,07,06,6.80
2015,09,26,07,07,6.80
2015,09,26,07,08,6.80
2015,09,26,07,09,6.70
2015,09,26,07,10,6.70
2015,09,26,07,11,6.70
2015,09,26,07,12,6.70
2015,09,26,07,13,6.70
2015,09,26,07,14,6.70
2015,09,26,07,15,6.70
2015,09,26,07,16,6.70
2015,09,26,07,17,6.70
2015,09,26,07,18,6.70
2015,09,26,07,19,6.70
2015,09,26,07,20,6.70
2015,09,26,07,21,6.60
2015,09,26,07,22,6.60
2015,09,26,07,23,6.60
2015,09,26,07,24,6.60
2015,09,26,07,25,6.60
2015,09,26,07,26,6.60
2015,09,26,07,27,6.60
2015,09,26,07,28,6.60
2015,09,26,07,29,6.50
2015,09,26,07,30,6.50
2015,09,26,07,31,6.50
2015,09,26,07,32,6.50
2015,09,26,07,33,6.50
2015,09,26,07,34,6.50
2015,09,26,07,35,6.50
2015,09,26,07,36,6.60
2015,09,26,07,37,6.60
2015,09,26,07,38,6.60
2015,09,26,07,39,6.70
2015,09,26,07,40,6.70
2015,09,26,07,41,6.80
2015,09,26,07,42,6.80
2015,09,26,07,43,6.90
2015,09,26,07,44,6.90
2015,09,26,07,45,6.90
2015,09,26,07,46,6.90
2015,09,26,07,47,7.00
2015,09,26,07,48,7.00
2015,09,26,07,49,7.10
2015,09,26,07,50,7.10
2015,09,26,07,51,7.10
2015,09,26,07,52,7.20
2015,09,26,07,53,7.20
2015,09,26,07,54,7.20
2015,09,26,07,55,7.20
2015,09,26,07,56,7.20
2015,09,26,07,57,7.20
2015,09,26,07,58,7.20
2015,09,26,07,59,7.20
2015,09,26,08,00,7.20
2015,09,26,08,01,7.20
2015,09,26,08,02,7.20
2015,09,26,08,03,7.20
2015,09,26,08,04,7.20
2015,09,26,08,05,7.20
2015,09,26,08,06,7.20
2015,09,26,08,07,7.20
2015,09,26,08,08,7.20
2015,09,26,08,09,7.20
2015,09,26,08,10,7.20
2015,09,26,08,11,7.30
2015,09,26,08,12,7.30
2015,09,26,08,13,7.30
2015,09,26,08,14,7.30
2015,09,26,08,15,7.40
2015,09,26,08,16,7.40
2015,09,26,08,17,7.40
2015,09,26,08,18,7.40
2015,09,26,08,19,7.50
2015,09,26,08,20,7.50
2015,09,26,08,21,7.50
2015,09,26,08,22,7.50
2015,09,26,08,23,7.60
2015,09,26,08,24,7.60
2015,09,26,08,25,7.70
2015,09,26,08,26,7.70
2015,09,26,08,27,7.70
2015,09,26,08,28,7.70
2015,09,26,08,29,7.80
2015,09,26,08,30,7.80
2015,09,26,08,31,7.90
2015,09,26,08,32,7.90
2015,09,26,08,33,7.90
2015,09,26,08,34,8.00
2015,09,26,08,35,8.00
2015,09,26,08,36,8.10
2015,09,26,08,37,8.10
2015,09,26,08,38,8.10
2015,09,26,08,39,8.20
2015,09,26,08,40,8.20
2015,09,26,08,41,8.20
2015,09,26,08,42,8.20
2015,09,26,08,43,8.30
2015,09,26,08,44,8.30
2015,09,26,08,45,8.30
2015,09,26,08,46,8.40
2015,09,26,08,47,8.40
2015,09,26,08,48,8.40
2015,09,26,08,49,8.50
2015,09,26,08,50,8.50
2015,09,26,08,51,8.60
2015,09,26,08,52,8.60
2015,09,26,08,53,8.70
2015,09,26,08,54,8.70
2015,09,26,08,55,8.80
2015,09,26,08,56,8.80
2015,09,26,08,57,8.80
2015,09,26,08,58,8.90
2015,09,26,08,59,8.90
2015,09,26,09,00,9.00
2015,09,26,09,01,9.00
2015,09,26,09,02,9.10
2015,09,26,09,03,9.10
2015,09,26,09,04,9.20
2015,09,26,09,05,9.20
2015,09,26,09,06,9.30
2015,09,26,09,07,9.30
2015,09,26,09,08,9.30
2015,09,26,09,09,9.40
2015,09,26,09,10,9.50
2015,09,26,09,11,9.50
2015,09,26,09,12,9.60
2015,09,26,09,13,9.60
2015,09,26,09,14,9.70
2015,09,26,09,15,9.80
2015,09,26,09,16,9.80
2015,09,26,09,17,9.80
2015,09,26,09,18,9.90
2015,09,26,09,19,10.00
2015,09,26,09,20,10.00
2015,09,26,09,21,10.10
2015,09,26,09,22,10.20
2015,09,26,09,23,10.20
2015,09,26,09,24,10.30
2015,09,26,09,25,10.30
2015,09,26,09,26,10.40
2015,09,26,09,27,10.40
2015,09,26,09,28,10.50
2015,09,26,09,29,10.50
2015,09,26,09,30,10.60
2015,09,26,09,31,10.60
2015,09,26,09,32,10.60
2015,09,26,09,33,10.70
2015,09,26,09,34,10.70
2015,09,26,09,35,10.80
2015,09,26,09,36,10.80
2015,09,26,09,37,10.80
2015,09,26,09,38,10.90
2015,09,26,09,39,10.90
2015,09,26,09,40,11.00
2015,09,26,09,41,11.10
2015,09,26,09,42,11.10
2015,09,26,09,43,11.20
2015,09,26,09,44,11.20
2015,09,26,09,45,11.30
2015,09,26,09,46,11.30
2015,09,26,09,47,11.40
2015,09,26,09,48,11.40
2015,09,26,09,49,11.40
2015,09,26,09,50,11.40
2015,09,26,09,51,11.40
2015,09,26,09,52,11.50
2015,09,26,09,53,11.50
2015,09,26,09,54,11.50
2015,09,26,09,55,11.60
2015,09,26,09,56,11.60
2015,09,26,09,57,11.70
2015,09,26,09,58,11.70
2015,09,26,09,59,11.80
2015,09,26,10,00,11.80
2015,09,26,10,01,11.80
2015,09,26,10,02,11.80
2015,09,26,10,03,11.70
2015,09,26,10,04,11.70
2015,09,26,10,05,11.70
2015,09,26,10,06,11.70
2015,09,26,10,07,11.70
2015,09,26,10,08,11.60
2015,09,26,10,09,11.60
2015,09,26,10,10,11.60
2015,09,26,10,11,11.60
2015,09,26,10,12,11.60
2015,09,26,10,13,11.60
2015,09,26,10,14,11.60
2015,09,26,10,15,11.60
2015,09,26,10,16,11.60
2015,09,26,10,17,11.60
2015,09,26,10,18,11.60
2015,09,26,10,19,11.60
2015,09,26,10,20,11.60
2015,09,26,10,21,11.60
2015,09,26,10,22,11.60
2015,09,26,10,23,11.60
2015,09,26,10,24,11.60
2015,09,26,10,25,11.60
2015,09,26,10,26,11.60
2015,09,26,10,27,11.60
2015,09,26,10,28,11.60
2015,09,26,10,29,11.60
2015,09,26,10,30,11.50
2015,09,26,10,31,11.50
2015,09,26,10,32,11.50
2015,09,26,10,33,11.50
2015,09,26,10,34,11.60
2015,09,26,10,35,11.60
2015,09,26,10,36,11.60
2015,09,26,10,37,11.70
2015,09,26,10,38,11.70
2015,09,26,10,39,11.70
2015,09,26,10,40,11.80
2015,09,26,10,41,11.80
2015,09,26,10,42,11.80
2015,09,26,10,43,11.90
2015,09,26,10,44,11.90
2015,09,26,10,45,12.00
2015,09,26,10,46,12.10
2015,09,26,10,47,12.20
2015,09,26,10,48,12.40
2015,09,26,10,49,12.50
2015,09,26,10,50,12.50
2015,09,26,10,51,12.60
2015,09,26,10,52,12.60
2015,09,26,10,53,12.50
2015,09,26,10,54,12.50
2015,09,26,10,55,12.50
2015,09,26,10,56,12.50
2015,09,26,10,57,12.50
2015,09,26,10,58,12.50
2015,09,26,10,59,12.50
2015,09,26,11,00,12.60
2015,09,26,11,01,12.60
2015,09,26,11,02,12.60
2015,09,26,11,03,12.60
2015,09,26,11,04,12.70
2015,09,26,11,05,12.70
2015,09,26,11,06,12.80
2015,09,26,11,07,12.90
2015,09,26,11,08,13.00
2015,09,26,11,09,13.10
2015,09,26,11,10,13.20
2015,09,26,11,11,13.30
2015,09,26,11,12,13.40
2015,09,26,11,13,13.50
2015,09,26,11,14,13.60
2015,09,26,11,15,13.70
2015,09,26,11,16,13.70
2015,09,26,11,17,13.70
2015,09,26,11,18,13.80
2015,09,26,11,19,13.90
2015,09,26,11,20,14.00
2015,09,26,11,21,14.00
2015,09,26,11,22,14.20
2015,09,26,11,23,14.30
2015,09,26,11,24,14.30
2015,09,26,11,25,14.30
2015,09,26,11,26,14.30
2015,09,26,11,27,14.30
2015,09,26,11,28,14.20
2015,09,26,11,29,14.20
2015,09,26,11,30,14.30
2015,09,26,11,31,14.30
2015,09,26,11,32,14.30
2015,09,26,11,33,14.40
2015,09,26,11,34,14.40
2015,09,26,11,35,14.40
2015,09,26,11,36,14.40
2015,09,26,11,37,14.30
2015,09,26,11,38,14.30
2015,09,26,11,39,14.30
2015,09,26,11,40,14.20
2015,09,26,11,41,14.20
2015,09,26,11,42,14.20
2015,09,26,11,43,14.20
2015,09,26,11,44,14.20
2015,09,26,11,45,14.10
2015,09,26,11,46,14.10
2015,09,26,11,47,14.10
2015,09,26,11,48,14.20
2015,09,26,11,49,14.20
2015,09,26,11,50,14.20
2015,09,26,11,51,14.30
2015,09,26,11,52,14.30
2015,09,26,11,53,14.30
2015,09,26,11,54,14.30
2015,09,26,11,55,14.30
2015,09,26,11,56,14.30
2015,09,26,11,57,14.30
2015,09,26,11,58,14.30
2015,09,26,11,59,14.30
2015,09,26,12,00,14.40
2015,09,26,12,01,14.40
2015,09,26,12,02,14.50
2015,09,26,12,03,14.60
2015,09,26,12,04,14.70
2015,09,26,12,05,14.70
2015,09,26,12,06,14.80
2015,09,26,12,07,14.80
2015,09,26,12,08,14.80
2015,09,26,12,09,14.80
2015,09,26,12,10,14.90
2015,09,26,12,11,15.00
2015,09,26,12,12,15.10
2015,09,26,12,13,15.20
2015,09,26,12,14,15.30
2015,09,26,12,15,15.30
2015,09,26,12,16,15.20
2015,09,26,12,17,15.00
2015,09,26,12,18,14.80
2015,09,26,12,19,14.80
2015,09,26,12,20,14.90
2015,09,26,12,21,14.90
2015,09,26,12,22,14.90
2015,09,26,12,23,14.80
2015,09,26,12,24,14.80
2015,09,26,12,25,14.80
2015,09,26,12,26,14.90
2015,09,26,12,27,14.90
2015,09,26,12,28,14.90
2015,09,26,12,29,14.80
2015,09,26,12,30,14.70
2015,09,26,12,31,14.50
2015,09,26,12,32,14.60
2015,09,26,12,33,14.70
2015,09,26,12,34,14.80
2015,09,26,12,35,14.70
2015,09,26,12,36,14.70
2015,09,26,12,37,14.70
2015,09,26,12,38,14.70
2015,09,26,12,39,14.70
2015,09,26,12,40,14.70
2015,09,26,12,41,14.70
2015,09,26,12,42,14.70
2015,09,26,12,43,14.80
2015,09,26,12,44,14.80
2015,09,26,12,45,14.80
2015,09,26,12,46,14.80
2015,09,26,12,47,14.90
2015,09,26,12,48,14.90
2015,09,26,12,49,14.90
2015,09,26,12,50,14.90
2015,09,26,12,51,14.90
2015,09,26,12,52,14.90
2015,09,26,12,53,14.90
2015,09,26,12,54,15.00
2015,09,26,12,55,15.00
2015,09,26,12,56,15.00
2015,09,26,12,57,15.00
2015,09,26,12,58,15.00
2015,09,26,12,59,15.00
2015,09,26,13,00,15.00
2015,09,26,13,01,15.00
2015,09,26,13,02,14.90
2015,09,26,13,03,14.90
2015,09,26,13,04,14.80
2015,09,26,13,05,14.90
2015,09,26,13,06,14.90
2015,09,26,13,07,14.80
2015,09,26,13,08,14.80
2015,09,26,13,09,14.80
2015,09,26,13,10,14.70
2015,09,26,13,11,14.70
2015,09,26,13,12,14.70
2015,09,26,13,13,14.80
2015,09,26,13,14,14.80
2015,09,26,13,15,14.80
2015,09,26,13,16,14.90
2015,09,26,13,17,14.90
2015,09,26,13,18,14.80
2015,09,26,13,19,14.80
2015,09,26,13,20,14.70
2015,09,26,13,21,14.60
2015,09,26,13,22,14.60
2015,09,26,13,23,14.50
2015,09,26,13,24,14.40
2015,09,26,13,25,14.40
2015,09,26,13,26,14.30
2015,09,26,13,27,14.30
2015,09,26,13,28,14.20
2015,09,26,13,29,14.20
2015,09,26,13,30,14.20
2015,09,26,13,31,14.20
2015,09,26,13,32,14.10
2015,09,26,13,33,14.10
2015,09,26,13,34,14.10
2015,09,26,13,35,14.10
2015,09,26,13,36,14.10
2015,09,26,13,37,14.10
2015,09,26,13,38,14.10
2015,09,26,13,39,14.10
2015,09,26,13,40,14.10
2015,09,26,13,41,14.10
2015,09,26,13,42,14.10
2015,09,26,13,43,14.10
2015,09,26,13,44,14.10
2015,09,26,13,45,14.20
2015,09,26,13,46,14.20
2015,09,26,13,47,14.20
2015,09,26,13,48,14.20
2015,09,26,13,49,14.30
2015,09,26,13,50,14.30
2015,09,26,13,51,14.30
2015,09,26,13,52,14.30
2015,09,26,13,53,14.20
2015,09,26,13,54,14.20
2015,09,26,13,55,14.20
2015,09,26,13,56,14.10
2015,09,26,13,57,14.10
2015,09,26,13,58,14.10
2015,09,26,13,59,14.10
2015,09,26,14,00,14.10
2015,09,26,14,01,14.10
2015,09,26,14,02,14.10
2015,09,26,14,03,14.20
2015,09,26,14,04,14.20
2015,09,26,14,05,14.20
2015,09,26,14,06,14.20
2015,09,26,14,07,14.30
2015,09,26,14,08,14.30
2015,09,26,14,09,14.40
2015,09,26,14,10,14.50
2015,09,26,14,11,14.60
2015,09,26,14,12,14.70
2015,09,26,14,13,14.70
2015,09,26,14,14,14.80
2015,09,26,14,15,14.90
2015,09,26,14,16,15.00
2015,09,26,14,17,15.10
2015,09,26,14,18,15.10
2015,09,26,14,19,15.10
2015,09,26,14,20,15.10
2015,09,26,14,21,15.10
2015,09,26,14,22,15.10
2015,09,26,14,23,15.10
2015,09,26,14,24,15.10
2015,09,26,14,25,15.20
2015,09,26,14,26,15.30
2015,09,26,14,27,15.50
2015,09,26,14,28,15.70
2015,09,26,14,29,15.90
2015,09,26,14,30,16.00
2015,09,26,14,31,16.10
2015,09,26,14,32,16.10
2015,09,26,14,33,16.10
2015,09,26,14,34,16.10
2015,09,26,14,35,16.10
2015,09,26,14,36,16.00
2015,09,26,14,37,16.00
2015,09,26,14,38,15.90
2015,09,26,14,39,15.90
2015,09,26,14,40,15.90
2015,09,26,14,41,16.00
2015,09,26,14,42,16.00
2015,09,26,14,43,16.00
2015,09,26,14,44,16.10
2015,09,26,14,45,16.20
2015,09,26,14,46,16.20
2015,09,26,14,47,16.10
2015,09,26,14,48,16.10
2015,09,26,14,49,16.10
2015,09,26,14,50,16.00
2015,09,26,14,51,16.00
2015,09,26,14,52,16.10
2015,09,26,14,53,16.20
2015,09,26,14,54,16.20
2015,09,26,14,55,16.20
2015,09,26,14,56,16.20
2015,09,26,14,57,16.30
2015,09,26,14,58,16.50
2015,09,26,14,59,16.40
2015,09,26,15,00,16.30
2015,09,26,15,01,16.30
2015,09,26,15,02,16.30
2015,09,26,15,03,16.40
2015,09,26,15,04,16.50
2015,09,26,15,05,16.50
2015,09,26,15,06,16.50
2015,09,26,15,07,16.50
2015,09,26,15,08,16.40
2015,09,26,15,09,16.40
2015,09,26,15,10,16.40
2015,09,26,15,11,16.40
2015,09,26,15,12,16.40
2015,09,26,15,13,16.40
2015,09,26,15,14,16.30
2015,09,26,15,15,16.30
2015,09,26,15,16,16.30
2015,09,26,15,17,16.40
2015,09,26,15,18,16.40
2015,09,26,15,19,16.50
2015,09,26,15,20,16.50
2015,09,26,15,21,16.50
2015,09,26,15,22,16.60
2015,09,26,15,23,16.60
2015,09,26,15,24,16.60
2015,09,26,15,25,16.70
2015,09,26,15,26,16.60
2015,09,26,15,27,16.60
2015,09,26,15,28,16.60
2015,09,26,15,29,16.40
2015,09,26,15,30,16.40
2015,09,26,15,31,16.40
2015,09,26,15,32,16.50
2015,09,26,15,33,16.60
2015,09,26,15,34,16.70
2015,09,26,15,35,16.70
2015,09,26,15,36,16.80
2015,09,26,15,37,16.90
2015,09,26,15,38,16.90
2015,09,26,15,39,16.90
2015,09,26,15,40,16.80
2015,09,26,15,41,16.80
2015,09,26,15,42,16.90
2015,09,26,15,43,17.00
2015,09,26,15,44,17.00
2015,09,26,15,45,16.90
2015,09,26,15,46,16.90
2015,09,26,15,47,16.80
2015,09,26,15,48,16.70
2015,09,26,15,49,16.70
2015,09,26,15,50,16.70
2015,09,26,15,51,16.70
2015,09,26,15,52,16.70
2015,09,26,15,53,16.70
2015,09,26,15,54,16.60
2015,09,26,15,55,16.60
2015,09,26,15,56,16.60
2015,09,26,15,57,16.60
2015,09,26,15,58,16.70
2015,09,26,15,59,16.70
2015,09,26,16,00,16.70
2015,09,26,16,01,16.80
2015,09,26,16,02,16.90
2015,09,26,16,03,17.00
2015,09,26,16,04,17.10
2015,09,26,16,05,17.10
2015,09,26,16,06,17.10
2015,09,26,16,07,17.00
2015,09,26,16,08,16.90
2015,09,26,16,09,16.80
2015,09,26,16,10,16.70
2015,09,26,16,11,16.60
2015,09,26,16,12,16.50
2015,09,26,16,13,16.40
2015,09,26,16,14,16.40
2015,09,26,16,15,16.50
2015,09,26,16,16,16.60
2015,09,26,16,17,16.60
2015,09,26,16,18,16.70
2015,09,26,16,19,16.70
2015,09,26,16,20,16.70
2015,09,26,16,21,16.70
2015,09,26,16,22,16.70
2015,09,26,16,23,16.70
2015,09,26,16,24,16.80
2015,09,26,16,25,16.70
2015,09,26,16,26,16.70
2015,09,26,16,27,16.80
2015,09,26,16,28,16.70
2015,09,26,16,29,16.60
2015,09,26,16,30,16.50
2015,09,26,16,31,16.40
2015,09,26,16,32,16.40
2015,09,26,16,33,16.30
2015,09,26,16,34,16.30
2015,09,26,16,35,16.30
2015,09,26,16,36,16.20
2015,09,26,16,37,16.20
2015,09,26,16,38,16.20
2015,09,26,16,39,16.20
2015,09,26,16,40,16.10
2015,09,26,16,41,16.00
2015,09,26,16,42,16.00
2015,09,26,16,43,16.00
2015,09,26,16,44,16.10
2015,09,26,16,45,16.10
2015,09,26,16,46,16.10
2015,09,26,16,47,16.00
2015,09,26,16,48,16.00
2015,09,26,16,49,15.90
2015,09,26,16,50,15.90
2015,09,26,16,51,15.90
2015,09,26,16,52,15.90
2015,09,26,16,53,16.00
2015,09,26,16,54,16.00
2015,09,26,16,55,16.10
2015,09,26,16,56,16.10
2015,09,26,16,57,16.10
2015,09,26,16,58,16.00
2015,09,26,16,59,15.80
2015,09,26,17,00,15.70
2015,09,26,17,01,15.60
2015,09,26,17,02,15.60
2015,09,26,17,03,15.60
2015,09,26,17,04,15.60
2015,09,26,17,05,15.70
2015,09,26,17,06,15.80
2015,09,26,17,07,15.80
2015,09,26,17,08,15.80
2015,09,26,17,09,15.80
2015,09,26,17,10,15.90
2015,09,26,17,11,15.90
2015,09,26,17,12,15.90
2015,09,26,17,13,16.00
2015,09,26,17,14,16.00
2015,09,26,17,15,16.00
2015,09,26,17,16,16.00
2015,09,26,17,17,16.10
2015,09,26,17,18,16.10
2015,09,26,17,19,16.10
2015,09,26,17,20,16.10
2015,09,26,17,21,16.10
2015,09,26,17,22,16.10
2015,09,26,17,23,16.10
2015,09,26,17,24,16.10
2015,09,26,17,25,16.00
2015,09,26,17,26,16.00
2015,09,26,17,27,16.10
2015,09,26,17,28,16.10
2015,09,26,17,29,16.20
2015,09,26,17,30,16.20
2015,09,26,17,31,16.20